GW3530 Weather Reports


Display with metric or nautical units.
time (UTC)temp
F
wind
direction
speed
MPH
gust
MPH
rain 1hr
in
rain 24hr
in
rain mn
in
humidity
%
barometer
mb
20260906224550 67 5 10.0 16.0 0.00 0.00 0.00 69 1009.5
20260906223058 67 355 9.0 16.0 0.00 0.00 0.00 69 1009.4
20260906221548 67 330 15.0 18.0 0.00 0.00 0.00 68 1009.4
20260906220054 68 9 14.0 19.0 0.00 0.00 0.00 68 1009.3
20260906214505 68 350 12.0 17.0 0.00 0.00 0.00 67 1009.3
20260906213014 69 17 13.0 19.0 0.00 0.00 0.00 67 1009.4
20260906211503 68 355 13.0 18.0 0.00 0.00 0.00 66 1009.3
20260906210007 68 355 12.0 16.0 0.00 0.00 0.00 67 1009.5
20260906204510 68 347 5.0 10.0 0.00 0.00 0.00 66 1009.7
20260906203024 69 350 3.0 9.0 0.00 0.00 0.00 65 1009.8
20260906201530 69 51 4.0 12.0 0.00 0.00 0.00 64 1009.8
20260906200016 69 69 5.0 15.0 0.00 0.00 0.00 66 1009.9
20260906194519 68 54 9.0 18.0 0.00 0.00 0.00 67 1009.8
20260906193020 67 24 11.0 19.0 0.00 0.00 0.00 67 1010.0
20260906191521 67 66 14.0 20.0 0.00 0.00 0.00 69 1010.1
20260906190006 65 360 14.0 26.0 0.00 0.00 0.00 71 1010.2
20260906184602 63 19 18.0 26.0 0.00 0.00 0.00 74 1010.2
20260906184505 63 28 17.0 26.0 0.00 0.00 0.00 74 1010.2
20260906183004 61 36 17.0 23.0 0.00 0.00 0.00 78 1010.5
20260906181506 59 27 17.0 25.0 0.00 0.00 0.00 79 1011.5
20260906180009 58 17 16.0 25.0 0.00 0.00 0.00 81 1011.6
20260906174511 58 355 19.0 24.0 0.00 0.00 0.00 82 1011.9
20260906173019 58 5 17.0 22.0 0.00 0.00 0.00 85 1012.0
20260906171529 58 355 14.0 19.0 0.00 0.00 0.00 87 1012.0
20260906170037 59 355 10.0 14.0 0.00 0.00 0.00 87 1012.0
20260906164543 59 5 9.0 12.0 0.00 0.00 0.00 87 1012.0
20260906163054 59 5 8.0 11.0 0.00 0.00 0.00 87 1011.9
20260906161558 59 11 8.0 11.0 0.00 0.00 0.00 87 1012.2
20260906160100 60 41 8.0 12.0 0.00 0.00 0.00 87 1012.1
20260906160004 60 30 8.0 12.0 0.00 0.00 0.00 87 1012.1
20260906154507 60 18 6.0 11.0 0.00 0.00 0.00 87 1012.4
20260906153006 60 57 7.0 11.0 0.00 0.00 0.00 87 1012.4
20260906151559 60 54 6.0 11.0 0.00 0.00 0.00 86 1012.5
20260906150100 60 66 9.0 16.0 0.00 0.00 0.00 86 1012.6
20260906150006 60 76 9.0 16.0 0.00 0.00 0.00 86 1012.6
20260906144516 60 32 12.0 20.0 0.00 0.00 0.00 86 1012.1
20260906143016 59 53 10.0 19.0 0.00 0.00 0.00 87 1012.1
20260906141513 58 67 10.0 14.0 0.00 0.00 0.00 88 1012.4
20260906140036 58 42 6.0 10.0 0.00 0.00 0.00 88 1012.8
20260906134519 57 37 8.0 13.0 0.00 0.00 0.00 89 1012.5
20260906133025 57 11 11.0 15.0 0.00 0.00 0.00 90 1012.5
20260906131509 56 21 12.0 16.0 0.00 0.00 0.00 90 1012.6
20260906130016 56 5 9.0 13.0 0.00 0.01 0.00 91 1013.2
20260906124521 55 10 10.0 17.0 0.00 0.01 0.00 91 1013.1
20260906123029 55 355 14.0 18.0 0.00 0.01 0.00 91 1012.7
20260906121531 55 9 12.0 18.0 0.00 0.01 0.00 91 1012.7
20260906120045 54 10 11.0 18.0 0.00 0.01 0.00 92 1012.6
20260906114533 54 5 14.0 19.0 0.00 0.01 0.00 91 1012.5
20260906113043 54 349 15.0 22.0 0.00 0.01 0.00 91 1012.6
20260906111528 54 13 16.0 20.0 0.00 0.01 0.00 91 1012.7
20260906110032 54 344 18.0 22.0 0.00 0.01 0.00 91 1012.7
20260906104536 54 348 17.0 21.0 0.00 0.01 0.00 90 1012.7
20260906103049 54 355 19.0 25.0 0.00 0.01 0.00 90 1012.9
20260906101550 54 19 17.0 26.0 0.00 0.01 0.00 89 1012.9
20260906100057 54 5 18.0 25.0 0.00 0.01 0.00 89 1013.0
20260906094609 55 9 20.0 27.0 0.00 0.01 0.00 89 1012.5
20260906094501 55 5 19.0 27.0 0.00 0.01 0.00 89 1012.6
20260906093014 55 5 21.0 28.0 0.00 0.01 0.00 89 1012.8
20260906091505 55 11 20.0 26.0 0.00 0.01 0.00 88 1012.9
20260906090013 55 5 23.0 29.0 0.00 0.01 0.00 88 1013.0
20260906084518 55 355 20.0 29.0 0.00 0.01 0.00 87 1013.1
20260906083028 55 9 18.0 25.0 0.00 0.01 0.00 86 1013.3
20260906081518 55 5 20.0 25.0 0.00 0.01 0.00 86 1013.4
20260906080020 55 31 19.0 24.0 0.00 0.01 0.00 85 1013.4
20260906074529 56 9 18.0 24.0 0.00 0.01 0.00 84 1013.9
20260906073024 56 9 19.0 29.0 0.00 0.01 0.00 83 1013.9
20260906071559 56 17 20.0 27.0 0.00 0.01 0.00 83 1014.1
20260906071501 56 9 20.0 27.0 0.00 0.01 0.00 82 1014.1
20260906070046 57 19 19.0 27.0 0.00 0.01 0.00 82 1014.2
20260906064551 57 28 18.0 25.0 0.00 0.01 0.00 82 1014.5
20260906063059 57 20 19.0 26.0 0.00 0.01 0.00 82 1014.6
20260906063002 57 351 20.0 27.0 0.00 0.01 0.00 82 1014.6
20260906061504 57 17 19.0 26.0 0.00 0.01 0.00 82 1014.5
20260906060055 57 5 16.0 27.0 0.00 0.01 0.01 81 1014.7
20260906054605 57 26 20.0 26.0 0.00 0.01 0.01 80 1014.6
20260906054501 57 17 19.0 26.0 0.00 0.01 0.01 80 1014.7
20260906053013 58 10 21.0 28.0 0.00 0.01 0.01 78 1014.6
20260906051552 58 360 18.0 26.0 0.00 0.01 0.01 77 1014.5
20260906050100 58 30 20.0 26.0 0.00 0.01 0.01 76 1014.7
20260906050002 58 11 20.0 26.0 0.00 0.01 0.01 75 1014.7
20260906044509 58 9 18.0 28.0 0.00 0.01 0.01 74 1014.5
20260906043017 59 9 22.0 29.0 0.00 0.01 0.01 74 1014.1
20260906041533 59 14 21.0 31.0 0.00 0.01 0.01 73 1013.8
20260906040027 59 12 21.0 30.0 0.00 0.01 0.01 72 1013.8
20260906034516 59 5 18.0 28.0 0.00 0.01 0.01 72 1014.1
20260906033020 59 351 21.0 27.0 0.00 0.01 0.01 70 1014.1
20260906031509 59 11 21.0 27.0 0.00 0.01 0.01 70 1013.6
20260906030013 60 348 21.0 28.0 0.00 0.01 0.01 69 1013.1
20260906024515 60 345 21.0 28.0 0.00 0.01 0.01 68 1012.8
20260906023024 61 355 23.0 29.0 0.00 0.01 0.01 67 1012.7
20260906021514 61 348 19.0 26.0 0.00 0.01 0.01 66 1012.8
20260906020105 62 360 20.0 28.0 0.00 0.01 0.01 64 1012.7
20260906020002 62 350 21.0 28.0 0.00 0.01 0.01 64 1012.8
20260906014525 63 26 20.0 28.0 0.00 0.01 0.01 62 1012.7
20260906013023 65 5 21.0 26.0 0.00 0.01 0.01 59 1012.6
20260906011524 67 25 21.0 28.0 0.00 0.01 0.01 55 1012.5
20260906010056 69 5 19.0 26.0 0.00 0.01 0.01 50 1012.4
20260906004529 72 17 23.0 29.0 0.00 0.01 0.01 46 1012.4
20260906003016 74 43 11.0 21.0 0.00 0.01 0.01 38 1012.4
20260906001533 75 33 12.0 20.0 0.00 0.01 0.01 37 1012.4
20260906000032 76 58 13.0 19.0 0.00 0.01 0.01 35 1012.5
20260905234535 76 12 11.0 16.0 0.00 0.01 0.01 35 1012.5
20260905233050 77 37 10.0 17.0 0.00 0.01 0.01 35 1012.4
20260905231556 77 355 7.0 16.0 0.00 0.01 0.01 34 1012.6
20260905230005 78 40 8.0 16.0 0.00 0.01 0.01 34 1012.4